Vorticity
nan nan nan nan nan nan nan nan nan nan nan nan nan nan nan nan nan nan nan nan nan nan nan nan nan nan nan nan nan nan nan nan nan nan nan nan nan nan nan nan nan nan nan nan nan nan nan nan nan nan nan nan nan nan
nan 23 16 11 13 18 17 17 23 24 11 10 12 15 13 12 1 -7 3 10 11 9 9 11 11 10 20 14 3 10 5 13 8 7 9 9 9 16 14 6 11 10 11 13 11 4 13 8 4 9 11 10 15 nan
nan 31 29 22 24 27 25 21 18 11 13 15 15 13 12 12 -1 -5 9 9 7 10 11 14 15 9 12 10 9 9 11 13 11 11 12 10 11 10 8 11 7 13 14 11 10 12 10 6 5 11 11 12 18 nan
nan 17 25 24 22 21 20 18 16 15 15 15 11 9 13 12 -1 -4 7 12 9 9 14 13 12 9 12 14 8 6 9 11 12 13 11 11 12 11 9 15 10 12 12 7 4 9 14 16 12 12 12 13 15 nan
nan 13 16 14 12 12 13 12 11 12 14 14 11 10 9 8 0 -3 10 11 9 8 9 14 11 14 15 14 8 7 5 5 8 11 11 10 9 10 10 11 13 13 10 8 11 14 11 20 20 14 14 14 11 nan
nan 8 7 11 11 10 11 10 10 9 10 12 12 12 12 6 -6 2 8 13 14 9 7 11 11 12 18 17 13 10 6 6 10 10 8 11 10 12 12 8 13 12 6 9 15 13 10 13 16 16 18 17 14 nan
nan 11 10 8 7 9 10 9 9 8 9 10 13 17 17 2 -8 7 9 19 14 1 9 7 12 15 13 12 12 14 12 11 10 10 12 12 12 11 10 11 12 15 14 12 14 7 9 16 16 15 15 12 13 nan
nan 15 13 10 9 9 9 10 11 11 12 13 12 14 7 -11 -3 12 18 23 5 -0 12 12 10 14 13 12 11 11 11 10 12 10 11 12 10 10 12 12 12 10 10 13 9 6 19 19 16 13 12 11 10 nan
nan 12 16 19 14 10 9 9 10 10 10 11 9 -3 -6 5 12 16 16 7 5 11 10 11 13 11 10 10 11 10 13 11 12 12 13 9 9 11 13 13 13 12 11 11 11 14 15 12 10 10 7 9 9 nan
nan 14 17 19 21 17 12 12 11 9 9 -2 -5 -1 9 16 16 11 9 6 8 11 10 8 11 10 11 11 12 11 12 13 11 9 12 9 7 10 12 16 17 16 17 12 8 15 14 14 10 11 7 9 12 nan
nan 11 12 15 21 27 22 11 11 4 -7 -6 7 11 17 11 2 8 14 12 10 11 11 14 12 6 9 14 10 10 12 11 13 17 10 9 12 9 12 15 18 17 9 9 12 15 17 19 13 11 13 13 13 nan
nan 7 7 10 17 22 22 13 0 -4 5 12 10 12 13 8 10 11 10 11 14 11 10 12 12 12 11 11 11 12 13 11 10 11 14 8 6 13 18 14 12 11 13 16 19 16 17 16 13 12 13 12 11 nan
nan 8 10 7 7 21 15 -7 -1 13 12 12 13 13 12 14 14 12 9 8 11 12 12 12 13 11 9 11 13 12 10 11 12 13 10 9 9 14 15 14 12 13 13 14 16 13 14 13 14 12 10 11 13 nan
nan 9 7 7 9 8 1 4 14 17 12 14 13 9 11 12 12 13 11 14 13 11 12 12 12 12 11 12 12 12 10 13 11 10 9 8 12 14 15 15 12 12 13 12 10 13 11 10 11 12 13 13 11 nan
nan 7 5 9 10 10 6 5 10 13 12 12 13 10 10 10 11 14 14 11 11 12 11 11 12 11 13 12 12 11 11 12 10 9 7 9 14 14 13 14 13 12 13 12 12 12 12 11 11 10 12 13 11 nan
nan 4 14 15 7 7 5 3 9 12 12 10 10 11 10 9 10 12 12 12 11 15 14 11 12 9 10 13 10 12 13 7 6 7 12 14 14 14 14 13 13 13 14 13 14 13 13 12 11 10 12 12 13 nan
nan 18 31 14 7 4 2 7 10 12 13 11 7 11 19 14 9 10 10 13 16 13 12 12 10 13 13 12 9 10 10 5 9 16 15 15 16 15 14 14 14 14 13 12 12 12 13 13 11 9 10 10 11 nan
nan 29 19 4 -1 3 8 12 13 11 11 12 9 9 15 13 12 13 12 16 21 16 12 12 10 11 15 11 8 8 8 11 13 13 14 17 16 16 15 13 13 13 13 12 12 10 10 12 11 11 10 10 9 nan
nan 19 1 -2 7 10 10 10 13 9 9 13 10 15 12 8 10 14 15 16 16 17 15 9 11 11 10 9 9 10 12 15 14 11 8 10 14 16 14 12 11 12 11 12 13 12 9 12 13 12 10 10 9 nan
nan 7 3 -0 7 14 11 12 13 10 13 14 7 9 11 9 11 11 12 14 18 13 11 13 11 12 11 11 14 15 16 19 17 9 8 10 10 9 12 14 12 10 9 8 10 13 13 8 10 13 14 14 12 nan
nan 5 11 10 10 13 12 11 14 14 12 11 12 9 9 4 7 13 11 13 14 14 11 9 11 11 13 15 16 15 15 19 18 16 14 10 11 11 10 10 12 12 11 10 10 8 11 12 11 12 13 12 12 nan
nan 12 11 12 16 12 7 13 16 10 13 10 11 12 11 11 7 10 11 13 12 10 11 10 12 13 10 12 16 17 16 14 14 12 13 13 12 11 12 13 11 11 11 12 12 11 10 11 12 12 12 11 11 nan
nan 11 11 14 12 12 11 11 10 14 14 12 12 12 13 12 12 13 12 11 9 8 14 14 11 12 13 11 10 10 13 14 12 11 11 12 12 12 11 12 14 13 10 11 13 12 9 10 13 13 11 12 12 nan
nan 12 14 12 12 13 10 13 13 13 11 13 15 11 11 13 13 13 11 9 7 10 10 14 16 12 8 9 10 10 13 13 11 11 13 13 10 10 12 12 13 12 12 12 11 10 10 10 11 12 12 11 11 nan
nan 10 14 10 12 13 11 12 14 15 12 13 12 10 12 15 15 12 12 9 9 11 11 11 12 14 14 10 9 8 11 15 13 9 10 16 15 11 9 9 8 10 12 11 10 11 11 11 11 10 11 9 9 nan
nan 13 14 13 14 13 12 12 13 13 12 13 11 12 13 15 11 13 14 11 10 11 12 13 13 12 10 13 12 10 12 15 14 9 10 12 14 14 11 10 9 7 11 12 10 10 11 11 10 10 10 11 11 nan
nan 15 14 12 18 10 12 12 13 12 11 11 13 14 14 13 13 12 10 13 14 12 13 14 15 13 12 11 10 10 12 13 15 12 9 10 11 13 13 10 10 10 11 13 12 11 11 11 12 12 12 12 11 nan
nan 9 13 11 13 16 13 10 12 12 10 12 13 15 19 11 7 9 15 15 12 11 10 12 13 13 12 11 12 13 12 13 12 11 9 7 8 10 11 11 8 11 14 12 11 12 14 13 13 13 13 13 12 nan
nan 13 11 13 14 13 12 15 10 7 14 17 13 12 10 10 11 13 15 14 12 11 10 9 9 11 11 10 10 12 13 15 12 10 11 9 9 9 10 12 11 11 11 10 10 14 14 13 12 12 13 15 14 nan
nan 17 13 10 12 11 13 13 12 10 13 16 12 13 11 10 12 15 15 13 13 12 11 11 12 12 11 10 9 10 12 12 15 14 10 10 11 10 11 11 11 12 12 12 13 11 11 12 12 11 12 13 13 nan
nan 14 11 15 13 13 15 10 11 13 10 12 14 15 13 11 10 11 13 15 14 12 10 10 13 13 12 11 11 9 10 11 12 13 12 12 12 11 11 13 13 13 13 13 13 13 13 12 11 10 9 10 12 nan
nan 18 15 11 11 12 11 15 14 10 12 13 12 10 11 15 13 11 12 12 11 12 13 12 10 12 12 10 11 12 11 10 11 11 12 11 11 12 13 13 14 14 13 12 13 12 12 12 12 10 9 10 11 nan
nan nan nan nan nan nan nan nan nan nan nan nan nan nan nan nan nan nan nan nan nan nan nan nan nan nan nan nan nan nan nan nan nan nan nan nan nan nan nan nan nan nan nan nan nan nan nan nan nan nan nan nan nan nan
CAPE
48 47 29 48 54 103 104 45 9 41 16 16 18 16 22 54 71 16 0 0 64 60 12 16 5 15 12 6 0 0 0 0 0 0 0 0 0 0 0 0 0 0 0 0 0 0 0 0 0 0 0 0 0 0
43 33 34 28 20 14 22 25 47 14 18 14 15 25 48 58 65 1 0 0 0 1 36 25 1 0 0 0 0 0 0 0 0 0 0 0 0 0 0 0 0 0 0 0 0 0 0 0 0 0 0 0 0 0
18 13 38 25 23 24 19 23 8 12 12 22 29 49 49 51 35 0 0 0 0 2 0 24 17 8 0 0 0 0 0 0 0 0 0 0 0 0 0 0 0 0 0 0 0 0 0 0 0 0 0 0 0 0
24 15 11 6 5 4 4 6 18 37 24 22 32 32 37 46 37 0 0 0 1 4 8 14 34 0 0 0 0 0 0 0 0 0 0 0 0 0 0 0 0 0 0 0 0 0 0 0 0 0 0 0 0 0
26 19 24 27 22 25 23 25 26 21 24 33 39 41 43 35 39 1 0 3 0 9 5 0 17 0 0 2 0 0 0 0 0 1 0 9 0 0 0 0 0 0 0 0 0 0 0 0 0 0 0 0 0 0
36 30 13 22 31 25 18 14 13 17 17 15 29 37 38 53 16 35 51 47 47 3 14 1 0 0 36 44 10 0 0 0 2 0 0 0 0 0 0 0 0 0 0 0 0 0 0 0 0 0 0 0 0 0
36 33 39 28 23 23 13 9 5 0 7 28 31 42 51 58 17 45 22 0 0 1 23 3 0 0 19 173 11 24 10 8 3 0 0 0 0 0 0 0 0 0 0 0 0 0 0 0 0 0 0 0 0 0
24 32 26 26 36 31 19 31 42 37 37 20 24 36 23 42 21 7 0 0 2 37 6 0 0 0 53 20 8 0 0 0 0 0 0 0 0 0 0 0 0 0 0 0 0 0 0 0 0 0 0 0 0 0
18 19 16 15 24 24 34 54 58 48 45 56 53 76 20 3 0 0 0 3 0 0 1 0 0 33 0 0 0 0 1 1 1 0 0 0 0 0 0 0 0 0 0 0 0 0 0 0 0 0 0 0 0 2
13 11 13 27 30 28 36 36 38 57 81 62 13 30 12 0 0 1 34 19 10 19 4 6 0 0 0 0 0 0 0 0 1 0 0 1 0 0 0 0 0 0 0 0 0 0 0 0 0 0 0 0 0 0
25 21 7 8 27 27 33 39 59 51 41 7 16 0 0 14 1 0 0 0 1 2 1 0 0 0 0 0 0 0 0 0 0 0 0 0 0 0 0 0 0 0 0 0 0 0 0 0 0 0 0 0 0 0
7 6 8 8 12 27 35 41 40 26 29 6 4 8 38 29 1 0 0 1 0 0 0 0 0 0 0 0 0 1 0 1 0 0 0 0 1 0 1 0 0 0 0 0 0 0 0 0 0 0 0 2 1 0
0 0 2 2 5 10 22 35 20 1 0 0 5 1 22 1 0 1 0 1 0 0 0 0 0 0 0 0 0 0 0 1 0 0 1 1 5 1 2 1 1 1 0 0 0 0 0 0 0 0 1 1 0 0
0 0 0 0 1 1 1 0 0 14 14 1 0 0 0 0 1 2 3 2 0 0 0 0 0 0 0 0 0 0 0 0 0 0 1 5 1 1 0 0 0 1 0 0 0 0 0 0 1 0 0 0 0 0
11 8 10 7 10 7 9 1 0 0 3 1 0 0 0 11 4 4 0 0 0 0 0 0 0 0 0 0 0 0 0 1 2 4 3 1 0 1 1 1 1 0 0 0 1 0 0 0 0 1 1 1 0 0
8 8 5 6 5 0 3 0 1 3 1 1 2 0 0 1 0 0 0 0 1 0 0 0 0 0 1 1 0 1 0 1 4 8 3 0 1 1 1 1 1 1 1 1 2 2 2 1 0 1 1 0 0 0
0 0 5 0 0 7 10 0 0 0 0 2 8 2 1 5 1 0 1 1 3 0 1 0 0 1 0 0 0 2 1 2 4 2 4 4 3 2 1 1 1 1 2 2 2 2 2 2 1 0 0 1 1 0
0 0 1 2 0 0 0 0 0 0 4 8 7 7 5 3 0 1 0 0 0 1 1 3 1 0 0 0 0 2 5 4 2 5 2 3 3 4 4 3 4 3 3 3 3 4 3 1 1 3 1 0 0 0
0 0 0 0 0 0 0 0 0 0 4 10 3 1 5 1 0 0 0 0 0 0 0 0 0 1 3 4 3 3 4 3 5 4 2 2 3 3 3 3 2 2 3 3 2 3 3 2 4 3 2 0 1 0
0 0 0 0 0 0 0 0 0 0 1 1 1 0 0 0 0 0 0 0 0 0 0 1 5 4 6 4 3 7 4 3 6 1 1 2 3 1 1 2 3 3 2 2 2 1 1 1 1 1 1 1 1 1
0 0 0 0 0 0 0 0 1 2 2 0 0 0 0 0 0 0 0 0 0 7 3 4 4 6 6 4 2 5 4 2 2 3 3 2 3 3 3 2 2 2 1 2 1 1 1 2 1 1 1 1 1 1
0 0 0 0 0 0 0 0 0 0 0 0 0 0 0 0 0 0 0 0 3 5 4 5 3 4 2 3 2 3 5 3 4 2 1 1 0 0 1 2 1 1 1 2 2 1 1 1 1 1 1 1 0 0
0 0 0 0 0 0 0 0 0 0 0 0 0 0 0 0 0 0 0 0 5 6 4 2 5 3 2 2 1 2 4 1 1 2 2 1 1 1 1 1 1 1 1 1 1 0 0 0 0 0 0 0 0 0
0 0 0 0 0 0 0 0 0 0 0 0 0 0 0 0 0 0 0 1 3 1 1 1 0 0 0 0 0 1 0 0 0 1 2 0 0 0 0 0 0 1 0 0 0 0 0 0 0 0 0 0 0 0
0 0 0 0 0 0 0 0 0 0 0 0 0 0 0 0 0 0 0 0 0 0 0 0 0 0 0 0 0 0 0 0 0 0 0 0 0 0 0 0 0 0 0 0 0 0 0 0 0 0 0 0 0 0
0 0 0 1 0 0 0 0 0 0 0 0 0 0 0 0 0 0 0 0 0 0 0 0 0 0 0 0 0 0 0 0 0 0 0 0 0 0 0 0 0 0 0 0 0 0 0 0 0 0 0 0 0 0
0 0 0 0 0 0 0 0 0 0 0 0 0 0 0 0 0 0 1 0 0 0 0 0 0 0 0 0 0 0 0 0 0 0 0 0 0 0 0 0 0 0 0 0 0 0 0 0 0 0 0 0 0 0
0 0 0 0 0 0 0 0 0 0 0 0 0 0 0 0 0 0 0 0 0 0 0 0 0 0 0 0 0 0 0 0 0 0 0 0 0 0 0 0 0 2 0 0 0 0 0 0 0 0 0 0 0 0
0 0 0 0 0 0 0 0 0 0 0 0 0 0 0 0 0 0 0 0 0 0 0 0 0 0 0 0 0 0 0 0 0 0 0 0 0 0 0 0 0 0 0 0 0 1 2 0 0 0 0 0 0 0
0 0 0 0 0 0 0 0 0 0 0 0 0 0 0 0 0 0 0 0 0 0 0 0 0 0 0 0 0 0 0 0 0 0 0 0 0 0 0 0 0 0 0 0 0 0 1 0 0 0 0 0 0 0
0 0 0 0 0 0 0 0 0 0 0 0 0 0 0 0 0 0 0 0 0 0 0 0 0 0 0 0 0 0 0 0 0 0 0 0 0 0 0 0 0 0 0 0 0 0 0 0 0 0 0 0 0 0
0 0 0 0 0 0 0 0 0 0 0 0 0 0 0 0 0 0 0 0 0 0 0 0 0 0 0 0 0 0 0 0 0 0 0 0 0 0 0 0 0 0 0 0 0 0 0 0 0 0 0 0 0 0
0 0 0 0 0 0 0 0 0 0 0 0 0 0 0 0 0 0 0 0 0 0 0 0 0 0 0 0 0 0 0 0 0 0 0 0 0 0 0 0 0 0 0 0 0 0 0 0 0 0 0 0 0 0